EHI
0 0 0 0 0 0 0 0 0 0 0 0 0 0 0 0 0 0 0 0 0 0 0 0 0 0 0 0 0 0 0 0 0 0 0 0 0 0 0 0 0 0 0
0 0 0 0 0 0 0 0 0 0 0 0 0 0 0 0 0 0 0 0 0 0 0 0 0 0 0 0 0 0 0 0 0 0 0 0 0 0 0 0 0 0 0
0 0 0 0 0 0 0 0 0 0 0 0 0 0 0 0 0 0 0 0 0 0 0 0 0 0 0 0 0 0 0 0 0 0 0 0 0 0 0 0 0 0 0
0 0 0 0 0 0 0 0 0 0 0 0 0 0 0 0 0 0 0 0 0 0 0 0 0 0 0 0 0 0 0 0 0 0 0 0 0 0 0 0 0 0 0
0 0 0 0 0 0 0 0 0 0 0 0 0 0 0 0 0 0 0 0 0 0 0 0 0 0 0 0 0 0 0 0 0 0 0 0 0 0 0 0 0 0 0
0 0 0 0 0 0 0 0 0 0 0 0 0 0 0 0 0 0 0 0 0 0 0 0 0 0 0 0 0 0 0 0 0 0 0 0 0 0 0 0 0 0 0
0 0 0 1 2 1 0 0 0 0 0 0 0 0 0 0 0 0 0 0 0 0 0 0 0 0 0 0 0 0 0 0 0 0 0 0 0 0 0 0 0 0 0
0 0 0 4 8 7 2 0 0 0 0 0 0 0 0 0 0 0 0 0 0 0 0 0 0 0 0 0 0 0 0 0 0 0 0 0 0 0 0 0 0 0 0
0 0 1 7 13 12 4 0 0 0 0 0 0 0 0 0 0 0 0 0 0 0 0 0 0 0 0 0 0 0 0 0 0 0 0 0 0 0 0 0 0 0 0
0 0 1 6 10 8 3 0 0 0 0 0 0 0 0 0 0 0 0 0 0 0 0 0 0 0 0 0 0 0 0 0 0 0 0 0 0 0 0 0 0 0 0
0 0 1 2 3 3 2 1 0 0 0 0 0 0 0 0 0 0 0 0 0 0 0 0 0 0 0 0 0 0 0 0 0 0 0 0 0 0 0 0 0 0 0
0 0 0 0 0 1 2 1 0 0 0 0 0 0 0 0 0 0 0 0 0 0 0 0 0 0 0 0 0 0 0 0 0 0 0 0 0 0 0 0 0 0 0
0 0 0 0 0 0 1 1 0 0 0 0 0 0 0 0 0 0 0 0 0 0 0 0 0 0 0 0 0 0 0 0 0 0 0 0 0 0 0 0 0 0 0
0 0 0 0 0 0 0 0 0 0 0 0 0 0 0 0 0 0 0 0 0 0 0 0 0 0 0 0 0 0 0 0 0 0 0 0 0 0 0 0 0 0 0
0 0 0 0 0 0 0 0 0 0 0 0 0 0 0 0 0 0 0 0 0 0 0 0 0 0 0 0 0 0 0 0 0 0 0 0 0 0 0 0 0 0 0
0 0 0 0 0 0 0 0 0 0 0 0 0 0 0 0 0 0 0 0 0 0 0 0 0 0 0 0 0 0 0 0 0 0 0 0 0 0 0 0 0 0 0
0 0 0 0 0 0 0 0 0 0 0 0 0 0 0 0 0 0 0 0 0 0 0 0 0 0 0 0 0 0 0 0 0 0 0 0 0 0 0 0 0 0 0
0 0 0 0 0 0 0 0 0 0 0 0 0 0 0 0 0 0 0 0 0 0 0 0 0 0 0 0 0 0 0 0 0 0 0 0 0 0 0 0 0 0 0
0 0 0 0 0 0 0 0 0 0 0 0 0 0 0 0 0 0 0 0 0 0 0 0 0 0 0 0 0 0 0 0 0 0 0 0 0 0 0 0 0 0 0
0 0 0 0 0 0 0 0 0 0 0 0 0 0 0 0 0 0 0 0 0 0 0 0 0 0 0 0 0 0 0 0 0 0 0 0 0 0 0 0 0 0 0
0 0 0 0 0 0 0 0 0 0 0 0 0 0 0 0 0 0 0 0 0 0 0 0 0 0 0 0 0 0 0 0 0 0 0 0 0 0 0 0 0 0 0
0 0 0 0 0 0 0 0 0 0 0 0 0 0 0 0 0 0 0 0 0 0 0 0 0 0 0 0 0 0 0 0 0 0 0 0 0 0 0 0 0 0 0
0 0 0 0 0 0 0 0 0 0 0 0 0 0 0 0 0 0 0 0 0 0 0 0 0 0 0 0 0 0 0 0 0 0 0 0 0 0 0 0 0 0 0
0 0 0 0 0 0 0 0 0 0 0 0 0 0 0 0 0 0 0 0 0 0 0 0 0 0 0 0 0 0 0 0 0 0 0 0 0 0 0 0 0 0 0
0 0 0 0 0 0 0 0 0 0 0 0 0 0 0 0 0 0 0 0 0 0 0 0 0 0 0 0 0 0 0 0 0 0 0 0 0 0 0 0 0 0 0
0 0 0 0 0 0 0 0 0 0 0 0 0 0 0 0 0 0 0 0 0 0 0 0 0 0 0 0 0 0 0 0 0 0 0 0 0 0 0 0 0 0 0
Wind_Speed
4 5 14 14 13 12 11 10 10 8 6 6 6 6 6 6 6 6 7 6 5 5 4 5 6 6 6 6 6 6 7 6 5 5 4 4 4 4 4 2 2 2 4
4 7 15 15 14 13 13 12 10 8 8 8 7 6 7 7 7 7 7 7 6 6 6 6 6 6 6 6 6 6 7 6 5 5 4 3 3 3 3 2 1 1 2
3 7 11 15 15 14 13 13 11 10 9 8 7 6 7 7 7 7 7 6 6 6 7 7 7 7 6 6 6 6 7 6 4 3 2 1 1 0 2 2 1 1 2
5 6 7 14 14 14 13 13 12 11 10 9 8 6 6 7 7 7 7 6 6 7 7 7 7 7 7 6 5 6 7 5 3 3 2 1 1 0 1 1 1 1 3
5 5 7 13 13 13 13 13 12 11 9 9 9 7 6 5 5 6 7 6 7 7 7 8 7 7 7 7 5 5 6 6 5 4 2 1 1 1 1 1 2 2 3
5 5 6 13 13 13 13 13 12 11 10 9 9 8 7 7 6 5 6 6 7 7 8 8 8 8 7 6 5 5 5 6 5 2 1 1 1 2 1 1 0 0 1
4 3 4 11 13 13 13 13 12 11 10 9 9 8 8 8 7 5 5 5 6 7 8 9 10 10 9 8 7 6 5 5 4 2 0 1 2 4 3 3 3 2 3
3 3 3 10 11 12 12 13 13 12 11 10 10 9 9 9 8 7 6 6 7 8 8 9 10 11 11 10 9 8 6 5 4 3 1 2 4 6 6 5 5 5 4
4 3 3 4 6 9 11 12 12 12 12 11 10 9 8 8 8 8 7 6 7 8 9 9 10 11 11 11 11 9 6 5 3 2 2 3 5 7 7 7 6 5 4
5 3 0 3 4 4 5 9 10 10 10 10 8 7 6 5 5 6 4 5 8 9 9 9 11 11 10 12 12 9 6 4 2 1 1 2 6 7 7 7 6 6 4
5 4 4 2 3 4 4 5 7 8 8 8 7 6 4 1 1 3 5 7 9 10 10 9 11 11 10 10 11 9 6 2 2 2 2 4 6 8 7 6 7 8 7
5 5 4 4 3 3 3 3 3 3 3 4 3 4 3 2 3 4 5 7 9 10 11 11 10 9 8 4 6 7 3 3 2 2 3 6 8 9 8 7 7 9 9
2 4 5 5 3 2 2 2 2 1 2 3 4 3 2 2 2 3 2 3 4 6 5 6 5 3 4 3 2 2 3 3 2 2 3 8 9 11 10 9 8 10 10
2 4 5 5 5 2 1 1 1 1 1 2 3 3 2 2 2 2 2 3 3 3 3 4 3 4 4 4 4 4 4 2 2 2 3 8 10 12 12 10 9 9 11
2 3 4 5 5 5 4 3 2 1 1 2 2 2 3 3 3 3 2 3 4 3 3 4 3 4 4 5 5 5 5 4 4 3 3 7 9 10 12 12 11 10 11
3 3 3 4 5 5 4 3 3 2 1 1 2 3 3 3 3 2 2 3 3 3 3 3 3 3 2 2 4 4 4 4 4 4 4 5 8 10 12 13 12 12 13
4 3 4 4 5 5 4 3 2 2 2 1 1 2 2 3 3 3 2 2 2 2 2 2 2 2 1 2 3 3 3 3 4 4 4 4 4 8 12 14 14 13 14
5 4 4 4 5 5 4 2 2 2 2 1 1 2 1 1 1 2 2 2 1 0 1 2 2 2 2 3 3 3 3 3 4 5 4 4 4 4 8 14 15 15 15
5 5 4 4 4 3 3 3 2 2 2 1 1 2 2 3 3 2 2 2 0 1 1 2 2 2 2 2 3 3 3 3 4 5 5 6 6 6 5 8 12 12 14
4 5 5 4 4 3 3 3 3 3 3 2 2 2 2 3 4 3 3 4 2 1 2 3 3 2 2 2 2 2 3 4 4 5 6 5 5 6 6 6 6 7 13
4 5 4 4 3 3 3 2 2 2 2 2 3 4 4 4 3 3 2 3 3 3 3 3 2 2 1 1 1 1 2 3 4 4 4 4 5 5 5 6 5 5 5
4 5 5 5 4 3 2 2 1 0 1 1 2 3 5 5 4 3 3 2 2 3 4 3 2 2 1 1 2 2 2 3 2 3 3 3 4 4 4 6 6 6 5
5 6 6 5 5 3 3 2 2 2 2 2 3 2 3 3 3 3 3 2 2 2 2 2 2 3 2 2 2 2 2 1 3 3 2 2 3 3 4 5 6 7 7
7 6 7 6 5 4 3 3 3 2 1 2 1 2 2 2 2 2 3 2 1 1 2 2 2 2 2 1 1 1 2 2 1 3 3 3 3 4 5 5 5 6 7
7 6 6 6 5 4 3 3 3 2 2 1 1 2 2 1 1 1 2 2 1 1 1 2 2 2 2 3 2 1 1 1 2 2 3 4 4 4 5 6 5 5 6
6 5 5 5 4 4 3 3 3 3 2 2 2 2 2 2 2 3 3 2 1 1 2 2 3 4 3 3 3 3 3 3 3 3 4 3 4 4 5 4 5 5 5
Wind_Direction
211 190 188 184 184 186 190 196 202 199 201 208 213 206 210 213 216 216 216 215 190 178 192 189 180 179 173 167 154 145 141 134 127 107 80 73 87 100 106 120 181 196 200
179 175 186 183 184 186 190 196 198 204 209 207 213 219 216 220 222 224 225 224 210 200 198 186 177 175 175 175 161 151 153 147 140 125 94 63 57 71 72 65 84 154 193
147 172 186 184 187 189 191 195 198 209 212 207 205 222 223 229 225 228 233 235 228 219 210 194 181 177 176 173 173 181 174 157 143 106 82 88 321 67 60 42 60 84 78
158 170 182 187 191 193 195 197 203 207 209 210 204 219 227 230 220 225 236 240 237 232 223 210 195 183 180 176 177 187 182 164 132 68 33 258 279 177 85 58 25 71 74
162 176 189 191 196 199 201 203 206 206 214 212 204 217 232 240 229 227 234 242 240 237 231 219 207 193 184 180 181 183 172 148 111 81 51 27 295 254 202 82 38 58 69
184 187 201 197 201 205 208 209 209 207 219 218 211 220 232 244 246 248 250 252 244 241 236 224 210 196 189 185 186 179 153 129 106 93 54 11 322 280 228 151 345 356 37
218 204 217 211 207 208 212 214 214 213 223 229 224 226 235 242 243 253 276 274 253 248 243 229 211 198 193 191 192 186 163 136 130 129 115 286 280 275 252 248 247 266 308
208 195 216 225 215 213 217 219 220 217 222 231 235 232 238 245 247 252 265 281 269 254 247 236 220 208 199 199 200 194 175 156 147 155 192 230 246 258 258 260 249 250 275
79 146 185 213 218 218 219 222 226 225 222 229 237 240 241 251 259 261 266 277 288 262 250 244 235 228 213 206 204 199 184 172 156 179 195 197 227 243 263 272 248 240 263
49 50 157 198 199 207 218 222 223 227 225 226 235 252 259 263 289 300 310 305 305 289 257 246 243 241 229 217 208 195 177 167 174 219 245 223 224 235 256 272 235 222 232
24 21 8 317 237 209 206 218 224 224 226 224 228 237 251 264 288 301 295 295 295 299 290 265 250 246 241 227 215 185 160 150 181 230 253 249 238 238 253 264 218 216 221
10 358 2 346 301 240 216 199 206 209 218 214 202 216 219 219 232 242 262 278 286 293 297 289 268 253 247 227 222 179 155 164 182 224 248 256 253 250 259 264 235 229 231
3 5 355 351 339 258 217 177 185 196 201 205 207 211 215 226 242 253 259 276 276 277 277 278 268 221 198 193 194 179 164 167 181 217 251 261 261 257 259 264 262 250 242
54 21 8 7 19 33 101 131 175 198 204 211 215 215 211 227 240 247 247 253 252 244 247 243 218 201 195 185 181 193 188 182 194 209 245 263 265 255 254 257 267 268 251
99 41 19 25 34 41 50 41 38 338 262 251 245 233 214 219 237 246 257 257 250 237 231 232 212 203 197 192 193 198 203 204 207 208 225 255 263 258 256 262 268 274 267
120 71 33 45 45 54 52 44 31 17 352 311 271 251 223 212 217 222 246 260 260 245 231 222 212 206 199 195 216 224 226 221 220 214 213 237 247 248 251 258 266 268 274
141 91 55 62 50 54 52 47 46 31 28 15 323 294 237 214 224 224 231 251 261 264 251 224 193 176 199 212 233 234 244 253 263 249 230 226 240 243 243 249 258 264 269
136 109 70 67 60 50 39 26 27 31 40 36 9 360 351 271 229 227 247 253 251 239 166 171 173 187 206 215 226 225 217 221 246 258 252 235 227 236 241 244 250 260 268
138 125 100 74 62 47 36 29 24 23 26 25 24 17 2 6 15 13 343 324 220 138 121 125 126 149 193 223 235 231 217 217 232 246 248 240 226 226 231 245 249 257 263
141 124 109 82 60 51 40 33 31 33 24 25 22 16 23 34 34 34 24 11 18 64 82 89 105 127 172 198 220 236 233 228 223 230 239 240 229 224 224 229 238 248 252
143 116 101 87 63 66 58 44 29 11 356 13 22 31 31 32 36 45 41 32 35 52 60 76 103 105 108 150 137 298 293 259 246 248 243 249 248 239 228 227 229 232 243
155 136 125 119 114 112 126 138 137 104 325 331 346 32 33 29 27 35 41 48 63 74 61 55 62 86 55 45 113 100 9 353 341 268 253 250 262 267 255 242 235 232 236
180 170 159 154 144 136 132 121 94 71 33 7 354 1 8 19 26 30 33 52 89 111 109 94 88 100 71 16 40 93 101 315 319 327 351 323 296 275 260 250 239 231 227
199 185 168 164 160 155 138 126 131 139 172 229 274 305 327 16 33 30 23 32 74 113 126 135 129 132 121 74 25 75 153 170 193 322 324 331 320 292 278 266 251 238 226
205 192 180 172 171 161 151 146 144 164 207 243 273 298 314 336 24 56 31 22 40 120 168 181 169 174 172 167 173 171 150 171 186 192 282 311 315 292 277 265 257 248 235
218 210 193 185 186 165 154 159 173 187 214 240 258 276 302 332 357 21 10 359 333 273 241 231 219 205 199 200 197 182 174 179 197 193 221 259 282 290 292 273 258 252 245